Powrót do katalogu

STARLINK-1156

AktywnyŁącznośćVLEO
NORAD 45054·PAYLOAD·🇺🇸 United States

Wystrzelony Jan 29, 2020 z Cape Canaveral Space Force Station

Loading…

Następne Przeloty (najbliższe 24 godziny)

TLE

ŚwieżeSource: CelesTrak SupGP

Epoka: Sep 15, 2026, 01:16 UTC

1 45054C 20006L   26258.05326389  .00092683  00000+0  20502-2 0  2581
2 45054  53.1517 114.0788 0001239 130.2418  46.0903 15.43187362    18

Śledź STARLINK-1156 w czasie rzeczywistym z AllMySat

Download on the App Store